Time,TemperatureF,DewpointF,PressureIn,WindDirection,WindDirectionDegrees,WindSpeedMPH,WindSpeedGustMPH,Humidity,HourlyPrecipIn,Conditions,Clouds,dailyrainin,SoftwareType,DateUTC
2013-08-17 00:06:00,57.5,57.0,30.08,South,188,0.0,-999.0,98,-99.99,,,0.00,weatherlink.com 1.10,2013-08-17 04:06:00,
2013-08-17 00:21:00,57.3,57.0,30.09,South,188,0.0,-999.0,98,-99.99,,,0.00,weatherlink.com 1.10,2013-08-17 04:21:00,
2013-08-17 00:51:00,56.9,56.0,30.08,South,186,0.0,-999.0,98,-99.99,,,0.00,weatherlink.com 1.10,2013-08-17 04:51:00,
2013-08-17 01:06:00,56.7,56.0,30.07,South,186,0.0,-999.0,98,-99.99,,,0.00,weatherlink.com 1.10,2013-08-17 05:06:00,
2013-08-17 01:21:00,56.7,56.0,30.07,South,186,0.0,-999.0,98,-99.99,,,0.00,weatherlink.com 1.10,2013-08-17 05:21:00,
2013-08-17 01:36:00,56.6,56.0,30.07,South,186,0.0,-999.0,98,-99.99,,,0.00,weatherlink.com 1.10,2013-08-17 05:36:00,
2013-08-17 01:51:00,56.2,55.0,30.06,South,186,0.0,-999.0,97,-99.99,,,0.00,weatherlink.com 1.10,2013-08-17 05:51:00,
2013-08-17 02:06:00,55.6,55.0,30.07,South,186,0.0,-999.0,96,-99.99,,,0.00,weatherlink.com 1.10,2013-08-17 06:06:00,
2013-08-17 02:21:00,54.8,54.0,30.06,South,186,0.0,-999.0,96,-99.99,,,0.00,weatherlink.com 1.10,2013-08-17 06:21:00,
2013-08-17 02:36:00,54.4,53.0,30.05,South,186,0.0,-999.0,96,-99.99,,,0.00,weatherlink.com 1.10,2013-08-17 06:36:00,
2013-08-17 02:51:00,53.9,53.0,30.05,South,186,1.0,-999.0,97,-99.99,,,0.00,weatherlink.com 1.10,2013-08-17 06:51:00,
2013-08-17 03:06:00,53.6,53.0,30.06,South,186,0.0,-999.0,98,-99.99,,,0.00,weatherlink.com 1.10,2013-08-17 07:06:00,
2013-08-17 03:21:00,53.3,53.0,30.06,South,186,0.0,-999.0,98,-99.99,,,0.00,weatherlink.com 1.10,2013-08-17 07:21:00,
2013-08-17 03:36:00,53.2,53.0,30.06,South,186,0.0,-999.0,98,-99.99,,,0.00,weatherlink.com 1.10,2013-08-17 07:36:00,
2013-08-17 03:51:00,53.1,53.0,30.06,South,186,0.0,-999.0,98,-99.99,,,0.00,weatherlink.com 1.10,2013-08-17 07:51:00,
2013-08-17 04:06:00,52.9,53.0,30.06,South,186,0.0,-999.0,99,-99.99,,,0.00,weatherlink.com 1.10,2013-08-17 08:06:00,
2013-08-17 04:21:00,53.1,53.0,30.06,South,186,0.0,-999.0,100,-99.99,,,0.00,weatherlink.com 1.10,2013-08-17 08:21:00,
2013-08-17 04:36:00,53.2,53.0,30.05,South,186,0.0,-999.0,100,-99.99,,,0.00,weatherlink.com 1.10,2013-08-17 08:36:00,
2013-08-17 04:51:00,53.3,53.0,30.05,South,186,0.0,-999.0,100,-99.99,,,0.00,weatherlink.com 1.10,2013-08-17 08:51:00,
2013-08-17 05:06:00,53.3,53.0,30.05,South,186,0.0,-999.0,99,-99.99,,,0.00,weatherlink.com 1.10,2013-08-17 09:06:00,
2013-08-17 05:21:00,53.3,53.0,30.05,South,186,0.0,-999.0,99,-99.99,,,0.00,weatherlink.com 1.10,2013-08-17 09:21:00,
2013-08-17 05:36:00,53.1,53.0,30.07,South,186,0.0,-999.0,99,-99.99,,,0.00,weatherlink.com 1.10,2013-08-17 09:36:00,
2013-08-17 05:51:00,52.8,52.0,30.07,South,186,0.0,-999.0,98,-99.99,,,0.00,weatherlink.com 1.10,2013-08-17 09:51:00,
2013-08-17 06:06:00,52.6,52.0,30.07,South,186,0.0,-999.0,98,-99.99,,,0.00,weatherlink.com 1.10,2013-08-17 10:06:00,
2013-08-17 06:21:00,52.5,52.0,30.07,South,186,0.0,-999.0,98,-99.99,,,0.00,weatherlink.com 1.10,2013-08-17 10:21:00,
2013-08-17 06:36:00,52.3,52.0,30.09,South,186,0.0,-999.0,98,-99.99,,,0.00,weatherlink.com 1.10,2013-08-17 10:36:00,
2013-08-17 06:51:00,52.2,52.0,30.09,South,186,0.0,-999.0,98,-99.99,,,0.00,weatherlink.com 1.10,2013-08-17 10:51:00,
2013-08-17 07:06:00,51.9,51.0,30.10,South,186,0.0,-999.0,98,-99.99,,,0.00,weatherlink.com 1.10,2013-08-17 11:06:00,
2013-08-17 07:21:00,52.0,52.0,30.11,South,186,0.0,-999.0,99,-99.99,,,0.00,weatherlink.com 1.10,2013-08-17 11:21:00,
2013-08-17 07:36:00,52.5,52.0,30.12,South,186,0.0,-999.0,99,-99.99,,,0.00,weatherlink.com 1.10,2013-08-17 11:36:00,
2013-08-17 07:51:00,53.1,53.0,30.11,South,186,0.0,-999.0,100,-99.99,,,0.00,weatherlink.com 1.10,2013-08-17 11:51:00,
2013-08-17 08:06:00,54.4,54.0,30.11,South,186,0.0,-999.0,100,-99.99,,,0.00,weatherlink.com 1.10,2013-08-17 12:06:00,
2013-08-17 08:21:00,54.5,55.0,30.11,South,186,0.0,-999.0,100,-99.99,,,0.00,weatherlink.com 1.10,2013-08-17 12:21:00,
2013-08-17 08:36:00,54.8,54.0,30.11,South,186,0.0,-999.0,96,-99.99,,,0.00,weatherlink.com 1.10,2013-08-17 12:36:00,
2013-08-17 08:51:00,55.3,53.0,30.12,SSW,193,0.0,-999.0,93,-99.99,,,0.00,weatherlink.com 1.10,2013-08-17 12:51:00,
2013-08-17 09:06:00,56.3,55.0,30.12,SSW,193,0.0,-999.0,94,-99.99,,,0.00,weatherlink.com 1.10,2013-08-17 13:06:00,
2013-08-17 09:21:00,56.9,55.0,30.12,NW,306,0.0,-999.0,92,-99.99,,,0.00,weatherlink.com 1.10,2013-08-17 13:21:00,
2013-08-17 09:36:00,57.3,55.0,30.12,NW,323,0.0,-999.0,92,-99.99,,,0.00,weatherlink.com 1.10,2013-08-17 13:36:00,
2013-08-17 09:51:00,58.9,55.0,30.11,WNW,299,0.0,-999.0,88,-99.99,,,0.00,weatherlink.com 1.10,2013-08-17 13:51:00,
2013-08-17 10:06:00,59.6,57.0,30.11,NNW,333,0.0,-999.0,90,-99.99,,,0.00,weatherlink.com 1.10,2013-08-17 14:06:00,
2013-08-17 10:22:00,59.8,55.0,30.11,SE,145,0.0,-999.0,85,-99.99,,,0.00,weatherlink.com 1.10,2013-08-17 14:22:00,
2013-08-17 10:37:00,59.9,56.0,30.11,NNW,335,0.0,-999.0,88,-99.99,,,0.00,weatherlink.com 1.10,2013-08-17 14:37:00,
2013-08-17 10:52:00,60.7,56.0,30.11,NNW,332,0.0,-999.0,85,-99.99,,,0.00,weatherlink.com 1.10,2013-08-17 14:52:00,
2013-08-17 11:07:00,61.5,57.0,30.11,NNW,333,0.0,-999.0,86,-99.99,,,0.00,weatherlink.com 1.10,2013-08-17 15:07:00,
2013-08-17 11:22:00,62.1,58.0,30.11,NNW,330,0.0,-999.0,85,-99.99,,,0.00,weatherlink.com 1.10,2013-08-17 15:22:00,
2013-08-17 11:37:00,63.1,56.0,30.11,ESE,112,0.0,-999.0,78,-99.99,,,0.00,weatherlink.com 1.10,2013-08-17 15:37:00,
2013-08-17 11:52:00,62.9,57.0,30.11,WNW,285,0.0,-999.0,82,-99.99,,,0.00,weatherlink.com 1.10,2013-08-17 15:52:00,
2013-08-17 12:07:00,63.2,57.0,30.12,ENE,64,0.0,-999.0,81,-99.99,,,0.00,weatherlink.com 1.10,2013-08-17 16:07:00,
2013-08-17 12:22:00,63.5,57.0,30.11,NNW,332,0.0,-999.0,80,-99.99,,,0.00,weatherlink.com 1.10,2013-08-17 16:22:00,
2013-08-17 12:37:00,63.4,58.0,30.10,ESE,109,0.0,-999.0,81,-99.99,,,0.00,weatherlink.com 1.10,2013-08-17 16:37:00,
2013-08-17 12:52:00,63.1,58.0,30.10,NNW,336,0.0,-999.0,84,-99.99,,,0.00,weatherlink.com 1.10,2013-08-17 16:52:00,
2013-08-17 13:07:00,63.1,58.0,30.10,NNW,343,0.0,-999.0,83,-99.99,,,0.00,weatherlink.com 1.10,2013-08-17 17:07:00,
2013-08-17 13:22:00,62.6,58.0,30.09,NW,323,0.0,-999.0,84,-99.99,,,0.00,weatherlink.com 1.10,2013-08-17 17:22:00,
2013-08-17 13:37:00,61.6,57.0,30.10,North,10,0.0,-999.0,84,-99.99,,,0.00,weatherlink.com 1.10,2013-08-17 17:37:00,
2013-08-17 13:52:00,61.5,58.0,30.10,NNW,340,0.0,-999.0,88,-99.99,,,0.00,weatherlink.com 1.10,2013-08-17 17:52:00,
2013-08-17 14:07:00,62.1,58.0,30.10,NNW,332,0.0,-999.0,86,-99.99,,,0.00,weatherlink.com 1.10,2013-08-17 18:07:00,
2013-08-17 14:22:00,62.0,58.0,30.09,NNW,333,0.0,-999.0,86,-99.99,,,0.00,weatherlink.com 1.10,2013-08-17 18:22:00,
2013-08-17 14:37:00,61.8,58.0,30.09,ESE,113,0.0,-999.0,88,-99.99,,,0.00,weatherlink.com 1.10,2013-08-17 18:37:00,
2013-08-17 14:52:00,61.2,58.0,30.09,ESE,114,0.0,-999.0,88,-99.99,,,0.00,weatherlink.com 1.10,2013-08-17 18:52:00,
2013-08-17 15:07:00,61.2,59.0,30.10,ESE,114,0.0,-999.0,91,-99.99,,,0.00,weatherlink.com 1.10,2013-08-17 19:07:00,
2013-08-17 15:22:00,61.2,59.0,30.09,ESE,116,0.0,-999.0,91,-99.99,,,0.00,weatherlink.com 1.10,2013-08-17 19:22:00,
2013-08-17 15:37:00,61.2,59.0,30.09,ESE,114,0.0,-999.0,93,-99.99,,,0.00,weatherlink.com 1.10,2013-08-17 19:37:00,
2013-08-17 15:52:00,60.7,59.0,30.09,ESE,114,0.0,-999.0,95,-99.99,,,0.00,weatherlink.com 1.10,2013-08-17 19:52:00,
2013-08-17 16:07:00,60.7,59.0,30.08,ESE,114,0.0,-999.0,95,-99.99,,,0.00,weatherlink.com 1.10,2013-08-17 20:07:00,
2013-08-17 16:22:00,60.5,60.0,30.08,ESE,117,0.0,-999.0,97,-99.99,,,0.00,weatherlink.com 1.10,2013-08-17 20:22:00,
2013-08-17 16:37:00,60.4,60.0,30.09,ESE,116,0.0,-999.0,97,-99.99,,,0.00,weatherlink.com 1.10,2013-08-17 20:37:00,
2013-08-17 16:52:00,60.2,60.0,30.09,South,184,0.0,-999.0,98,-99.99,,,0.00,weatherlink.com 1.10,2013-08-17 20:52:00,
2013-08-17 17:07:00,60.1,60.0,30.09,NW,309,0.0,-999.0,98,-99.99,,,0.00,weatherlink.com 1.10,2013-08-17 21:07:00,
2013-08-17 17:22:00,60.1,60.0,30.09,NW,309,0.0,-999.0,98,-99.99,,,0.00,weatherlink.com 1.10,2013-08-17 21:22:00,
2013-08-17 17:37:00,59.9,59.0,30.10,NW,309,0.0,-999.0,98,-99.99,,,0.00,weatherlink.com 1.10,2013-08-17 21:37:00,
2013-08-17 17:52:00,59.8,60.0,30.09,NW,309,0.0,-999.0,99,-99.99,,,0.00,weatherlink.com 1.10,2013-08-17 21:52:00,
2013-08-17 18:07:00,59.6,60.0,30.09,NW,304,0.0,-999.0,100,-99.99,,,0.00,weatherlink.com 1.10,2013-08-17 22:07:00,
2013-08-17 18:22:00,59.6,60.0,30.09,WNW,301,0.0,-999.0,100,-99.99,,,0.00,weatherlink.com 1.10,2013-08-17 22:22:00,
2013-08-17 18:37:00,59.6,60.0,30.09,WNW,299,0.0,-999.0,100,-99.99,,,0.00,weatherlink.com 1.10,2013-08-17 22:37:00,
2013-08-17 18:52:00,59.3,59.0,30.08,WNW,299,0.0,-999.0,100,-99.99,,,0.00,weatherlink.com 1.10,2013-08-17 22:52:00,
2013-08-17 19:07:00,59.3,59.0,30.09,WNW,299,0.0,-999.0,100,-99.99,,,0.00,weatherlink.com 1.10,2013-08-17 23:07:00,
2013-08-17 19:22:00,59.2,59.0,30.09,NW,306,0.0,-999.0,100,-99.99,,,0.00,weatherlink.com 1.10,2013-08-17 23:22:00,
2013-08-17 19:37:00,59.2,59.0,30.07,ESE,114,0.0,-999.0,100,-99.99,,,0.00,weatherlink.com 1.10,2013-08-17 23:37:00,
2013-08-17 19:52:00,58.9,59.0,30.07,South,175,0.0,-999.0,100,-99.99,,,0.00,weatherlink.com 1.10,2013-08-17 23:52:00,
2013-08-17 20:07:00,58.9,59.0,30.07,SSW,198,0.0,-999.0,100,-99.99,,,0.00,weatherlink.com 1.10,2013-08-18 00:07:00,
2013-08-17 20:22:00,58.9,59.0,30.09,SSE,161,0.0,-999.0,100,-99.99,,,0.00,weatherlink.com 1.10,2013-08-18 00:22:00,
2013-08-17 20:37:00,58.9,59.0,30.08,WNW,294,0.0,-999.0,100,-99.99,,,0.00,weatherlink.com 1.10,2013-08-18 00:37:00,
2013-08-17 20:52:00,58.9,59.0,30.08,West,260,0.0,-999.0,100,-99.99,,,0.00,weatherlink.com 1.10,2013-08-18 00:52:00,
2013-08-17 21:07:00,58.6,59.0,30.08,West,260,0.0,-999.0,100,-99.99,,,0.00,weatherlink.com 1.10,2013-08-18 01:07:00,
2013-08-17 21:22:00,58.6,59.0,30.08,West,260,0.0,-999.0,100,-99.99,,,0.00,weatherlink.com 1.10,2013-08-18 01:22:00,
2013-08-17 21:37:00,58.7,59.0,30.08,West,260,0.0,-999.0,100,-99.99,,,0.00,weatherlink.com 1.10,2013-08-18 01:37:00,
2013-08-17 21:52:00,58.6,59.0,30.09,West,263,0.0,-999.0,100,-99.99,,,0.00,weatherlink.com 1.10,2013-08-18 01:52:00,
2013-08-17 22:07:00,58.6,59.0,30.09,West,265,0.0,-999.0,100,-99.99,,,0.00,weatherlink.com 1.10,2013-08-18 02:07:00,
2013-08-17 22:22:00,58.6,59.0,30.09,West,265,0.0,-999.0,100,-99.99,,,0.00,weatherlink.com 1.10,2013-08-18 02:22:00,
2013-08-17 22:37:00,58.6,59.0,30.08,West,265,0.0,-999.0,100,-99.99,,,0.00,weatherlink.com 1.10,2013-08-18 02:37:00,
2013-08-17 22:52:00,58.4,58.0,30.08,West,272,0.0,-999.0,100,-99.99,,,0.00,weatherlink.com 1.10,2013-08-18 02:52:00,
2013-08-17 23:07:00,58.4,58.0,30.08,SE,128,0.0,-999.0,100,-99.99,,,0.00,weatherlink.com 1.10,2013-08-18 03:07:00,
2013-08-17 23:22:00,58.4,58.0,30.08,SW,230,1.0,-999.0,100,-99.99,,,0.00,weatherlink.com 1.10,2013-08-18 03:22:00,
2013-08-17 23:37:00,58.4,58.0,30.09,SW,234,0.0,-999.0,100,-99.99,,,0.00,weatherlink.com 1.10,2013-08-18 03:37:00,
2013-08-17 23:52:00,58.4,58.0,30.08,SW,234,0.0,-999.0,100,-99.99,,,0.00,weatherlink.com 1.10,2013-08-18 03:52:00,